Terug naar catalogus

STARLINK-5816

ActiefCommunicatieVLEO
NORAD 55778·PAYLOAD·🇺🇸 United States

Gelanceerd Mar 3, 2023 vanaf Vandenberg Space Force Base

Loading…

Volgende Passages (komende 24 uur)

TLE

VersSource: CelesTrak SupGP

Epoch: Sep 14, 2026, 21:14 UTC

1 55778C 23028AP  26257.88520833  .00004685  00000+0  39279-3 0  2578
2 55778  70.0002 107.2846 0003049 276.0366 181.8065 14.98310543    15

Volg STARLINK-5816 in realtime met AllMySat

Download on the App Store